Location: Unspecified
(43.4354°N, 0.0000°E)
Time: 18:08:01
(UTC+00:00)

S-56A Canister/Altair - Pass Details

Date: 02 July 2019
Orbit: 633 x 2499 km, 38.9° (Epoch: 19 August)

Event Time Altitude Azimuth Distance (km) Brightness Sun altitude
Rises 12:02:23 0° 228° (SW) 6,163 12.3 69.6°
Reaches altitude 10° 12:06:43 10° 224° (SW) 5,096 12.1 69.6°
Maximum altitude 12:20:14 49° 156° (SSE) 2,556 11.6 69.3°
Drops below altitude 10° 12:30:22 10° 86° (E) 3,884 11.2 68.9°
Sets 12:33:12 0° 81° (E) 4,637 11.4 68.7°
